weather.gov     
National Weather Service

Regional Weather Roundup
NWS Homepage
This page is being discontinued on March 12, 2014.
The same data is available at this site. Please update your bookmarks.
Thank you, and we apologize for the inconvenience.
Please send an email to SR-SRH.Webmaster@noaa.gov with any concerns.


Current Version
Previous Version:    01  02  03  04  05  06  07  08  09  10  11  12  13  14  15  16  17  18  19  20  21  22  23  24  25  26  27  28  29  30  
   31  32  33  34  35  36  37  38  39  40  41  42  43  44  45  46  47  48  49  50  51  52  53  54  55  56  57  58  59  60  
[Printable]
313
ASUS44 KFWD 250415
RWRTX
NORTH TEXAS HOURLY WEATHER ROUNDUP
NATIONAL WEATHER SERVICE FORT WORTH TX
1100 PM CDT FRI OCT 24 2014

NOTE: "FAIR" INDICATES FEW OR NO CLOUDS BELOW 12,000 FEET WITH NO
SIGNIFICANT WEATHER AND/OR OBSTRUCTIONS TO VISIBILITY.

TXZ118-119-250500-
DALLAS/FORT WORTH METROPLEX

CITY           SKY/WX    TMP DP  RH WIND       PRES   REMARKS
DFW AIRPORT    PTCLDY    72  60  66 S8        30.09R
DALLAS LOVE    PTCLDY    73  60  63 S10       30.10R
FTW MEACHAM    CLEAR     72  60  66 S8        30.09R
DAL-EXECUTIVE  CLEAR     72  59  63 S6        30.10R
FTW-ALLIANCE   CLEAR     72  59  63 S8        30.09R
FTW-NAS-JRB    PTCLDY    75  58  55 S9        30.13S
FTW-SPINKS     CLEAR     70  60  69 S7        30.12R
ARLINGTON      CLEAR     71  59  65 S8        30.10R
GRAND PRAIRIE  CLEAR     72  62  71 S5        30.11S
ADDISON        CLEAR     73  63  70 S9        30.11S
MESQUITE       CLEAR     66  59  79 S6        30.11R
LANCASTER      CLEAR     66  58  73 CALM      30.12R
$$

TXZ091>094-102>105-117-120-121-131>134-250500-
NORTH CENTRAL TEXAS

CITY           SKY/WX    TMP DP  RH WIND       PRES   REMARKS
SHRMAN/DENISON CLEAR     70  63  77 SE10      30.10S
GAINESVILLE    CLEAR     66  60  81 SE3       30.11R
BOWIE          CLEAR     70  61  73 SE6       30.08S
BRIDGEPORT     CLEAR     73  61  68 S9        30.10S
DECATUR        CLEAR     72  59  62 S13       30.09S
DENTON         CLEAR     68  60  75 S9        30.08S
MCKINNEY       CLEAR     67  60  78 SE7       30.10R
GREENVILLE     CLEAR     63  59  88 CALM      30.11S
ROCKWALL       CLEAR     69  59  71 S9        30.10R
TERRELL        CLEAR     67  59  75 S6        30.12R
WAXAHACHIE     CLEAR     67  60  78 S3        30.13R
CLEBURNE       CLEAR     70  63  78 S7        30.13R
GRANBURY       CLEAR     73  61  65 SE5       30.11S
$$

TXZ083>090-098>101-113>116-127>130-139>142-154-155-250500-
WESTERN NORTH TEXAS

CITY           SKY/WX    TMP DP  RH WIND       PRES   REMARKS
WICHITA FALLS  CLEAR     68  59  73 S7        30.05R
WF-KICKAPOO    CLEAR     68  58  70 MISG      30.07S
VERNON         CLEAR     72  55  56 S8        30.07R
ABILENE        CLEAR     70  54  56 SE9       30.13R
ABILENE-DYESS  CLEAR     63  52  67 S7        30.12R
BRECKENRIDGE   CLEAR     74  57  55 S10       30.10S
GRAHAM         PTCLDY    74  60  61 SE5       30.08S
MINERAL WELLS  CLEAR     70  60  70 SE10      30.08S
STEPHENVILLE   CLEAR     67  59  75 CALM      30.16R
COMANCHE       CLEAR     71  60  69 S10       30.14R
BROWNWOOD      PTCLDY    66  57  72 CALM      30.14R
COLEMAN        CLEAR     70  58  65 S7        30.15R
BRADY          CLEAR     70  55  60 SE5       30.15S
$$

TXZ143>147-156>162-174-175-250500-
CENTRAL TEXAS

CITY           SKY/WX    TMP DP  RH WIND       PRES   REMARKS
WACO           CLEAR     70  60  70 S9        30.12R
WACO-TSTC      CLEAR     66  59  77 S3        30.13R
WACO-MCGREGOR  CLEAR     68  55  64 S8        30.14R
HILLSBORO      CLEAR     70  58  63 SE7       30.13R
CORSICANA      CLEAR     66  59  78 S7        30.13R
MEXIA          CLEAR     65  59  83 SE3       30.13R
HEARNE         CLEAR     65  59  79 CALM      30.15R HAZE
CAMERON        CLEAR     69  59  69 SE5       30.14R
TEMPLE         CLEAR     68  55  64 SE9       30.13R
KILLEEN        CLEAR     67  59  77 S7        30.14S
KILLEEN-SKYLRK CLEAR     70  55  60 S7        30.12F
FORT HOOD      CLEAR     71  60  68 SE6       30.14R
GATESVILLE     CLEAR     68  61  77 S5        30.15S
HAMILTON       CLEAR     67  59  75 S9        30.15R
LAMPASAS       CLEAR     67  61  81 CALM      30.14S
$$

TXZ095>097-106>112-122>126-135>138-148>153-164>167-250500-
EAST TEXAS

CITY           SKY/WX    TMP DP  RH WIND       PRES   REMARKS
PARIS          CLEAR     64  54  68 S6        30.12S
SULPHUR SPRNGS CLEAR     69  59  70 S6        30.13F
MOUNT PLEASANT CLEAR     63  60  90 CALM      30.13F
MINEOLA        CLEAR     63  61  94 CALM      30.13S
TYLER          CLEAR     64  58  80 S5        30.13R
LONGVIEW       CLEAR     62  58  86 S3        30.13R
MARSHALL       CLEAR     60  57  91 CALM      30.15R
ATHENS         CLEAR     61  59  94 CALM      30.12S
PALESTINE      CLEAR     65  60  85 CALM      30.15R
JACKSONVILLE   CLEAR     66  57  73 CALM      30.16R
HENDERSON      CLEAR     59  59  99 CALM      30.14S
NACOGDOCHES    CLEAR     57  54  88 CALM      30.15R
LUFKIN         CLEAR     60  56  86 CALM      30.14S
$$

SUPPLEMENTAL OBSERVATIONS (CENTRAL)

CITY           SKY/WX    TMP DP  RH WIND       PRES   REMARKS
LAKE TEXOMA      N/A    N/A N/A N/A SE5         N/A
PAT MAYSE LAKE   N/A     66  59  77 SE9         N/A
GREENVILLE       N/A     66  59  77 S5          N/A
CEDAR HILL       N/A     72  59  64 S9          N/A
ATHENS           N/A     68  61  77 SE5         N/A
PALESTINE        N/A     61  57  88 CALM        N/A
LAKE LIMESTONE   N/A     66  59  77 SE2         N/A
MCGREGOR         N/A     66  55  68 SW3G12      N/A
TEMPLE           N/A     68  57  68 SE5         N/A
$$

SUPPLEMENTAL OBSERVATIONS (WEST)

CITY           SKY/WX    TMP DP  RH WIND       PRES   REMARKS
MILLERS CREEK    N/A     72  52  49 SW6         N/A
POSSUM KINGDOM   N/A     72  55  56 S6          N/A
GRANBURY         N/A     72  59  64 SE5         N/A
COMANCHE         N/A     72  59  64 S10         N/A
HAMBY            N/A     73  54  49 S9          N/A
COLORADO BEND    N/A     70  59  68 S6          N/A
$$

SUPPLEMENTAL OBSERVATIONS (EAST)

CITY           SKY/WX    TMP DP  RH WIND       PRES   REMARKS
CLARKSVILLE      N/A     64  59  82 S3          N/A
TEXARKANA        N/A     55  52  88 CALM        N/A
LINDEN           N/A     61  57  88 CALM        N/A
CADDO LAKE       N/A     55  54  94 CALM        N/A
GILMER           N/A     61  57  88 SW2         N/A
HENDERSON        N/A     57  54  88 SE2         N/A
LUFKIN           N/A     57  54  88 MISG        N/A
S SABINE NF      N/A     54  50  87 CALM        N/A
$$

SUPPLEMENTAL OBSERVATIONS ARE A COLLECTION OF AUTOMATED INSTRUMENTS
THAT ARE MAINTAINED BY A VARIETY OF FEDERAL AND STATE AGENCIES.
CERTAIN ELEMENTS...SUCH AS HUMIDITY VALUES AND SUSTAINED WIND
SPEEDS...MAY BE APPROXIMATED.





U.S. Dept. of Commerce
NOAA National Weather Service
1325 East West Highway
Silver Spring, MD 20910
E-mail: w-nws.webmaster@noaa.gov
Page last modified: May 16, 2007
NATIONAL WEATHER SERVICE: for Safety, for Work, for Fun - FOR LIFE